Wind_Speed
30 30 32 30 28 26 22 20 19 19 20 19 19 19 19 21 30 32 34 35 34 34 36 32 33 34 35 38 38 44 42 44 37 38 39 40 35 36 36 35 36 38 41 39 37 42 41 32 38 41 39 37 33 33
33 32 32 35 32 31 27 24 21 20 21 19 20 21 20 21 26 32 34 34 33 33 34 30 34 35 37 39 37 39 40 42 40 37 40 39 40 34 35 37 34 34 37 36 40 41 40 39 39 41 41 37 33 31
36 36 36 36 36 33 31 27 23 22 22 20 20 21 21 21 24 30 32 33 31 31 33 32 33 33 34 35 38 41 44 44 39 33 33 35 39 38 35 37 37 39 41 39 35 35 39 42 41 41 40 38 37 34
37 38 36 37 38 35 32 28 25 23 23 22 20 21 21 21 23 26 30 31 29 29 31 30 32 32 32 31 34 36 40 41 38 36 36 32 32 39 43 44 41 42 43 44 41 43 42 43 38 35 48 39 35 35
36 34 32 35 37 36 34 30 26 23 23 22 21 21 21 19 22 24 27 29 27 27 27 27 27 28 30 30 32 33 36 38 39 38 39 37 34 36 43 42 44 43 40 39 44 42 42 42 41 38 40 40 38 28
35 32 28 30 35 37 34 30 26 24 22 22 21 21 20 18 21 22 25 26 26 25 25 24 23 23 27 28 30 31 34 35 37 40 41 38 39 42 40 39 38 37 40 39 49 46 46 42 35 34 34 6 26 36
38 36 31 28 32 36 34 30 26 24 22 22 21 20 19 18 20 21 24 26 24 23 22 22 20 19 23 25 27 30 33 32 34 37 40 40 40 45 45 44 43 44 44 42 43 35 35 38 35 36 40 17 23 29
44 42 38 34 32 35 35 31 28 24 22 22 20 20 18 17 20 21 24 25 24 22 20 19 17 15 19 21 24 26 29 30 31 33 35 38 41 44 44 41 44 47 48 46 43 44 50 49 48 45 43 35 35 36
45 44 44 42 38 36 35 33 30 26 23 22 21 19 18 17 20 22 24 24 23 21 19 16 13 14 17 17 18 21 24 26 28 29 32 35 38 42 44 43 41 47 47 45 46 45 48 50 49 46 45 42 38 33
38 39 39 39 38 39 37 34 31 27 25 23 22 20 18 19 22 24 24 23 22 20 18 16 15 14 10 9 10 12 14 17 21 23 26 31 33 37 41 44 44 45 48 48 49 48 45 46 46 47 47 43 39 39
39 37 34 31 31 31 37 36 31 28 27 25 23 20 19 20 23 24 24 23 22 20 18 17 13 7 10 9 10 11 8 11 14 18 20 24 27 32 37 39 40 40 44 45 46 47 46 46 47 50 49 49 46 44
40 37 34 29 29 30 34 36 34 31 25 21 22 19 19 21 24 26 23 22 22 20 19 17 17 18 11 16 16 13 13 11 10 10 15 18 20 23 26 28 30 26 31 38 41 43 44 44 46 48 49 48 50 47
43 38 36 31 31 32 34 34 33 31 30 26 23 22 21 22 24 24 21 21 21 19 17 15 14 14 13 16 18 16 13 18 9 15 12 16 16 18 19 23 21 24 30 31 31 33 35 35 37 40 40 40 42 43
39 34 34 33 32 30 33 33 34 31 26 22 22 20 22 22 24 22 19 19 19 19 19 17 15 13 14 16 15 14 16 11 12 13 18 19 20 21 21 23 25 25 25 26 29 30 31 32 33 34 36 38 39 38
37 34 34 31 35 31 33 37 34 29 23 23 23 21 22 21 24 23 22 20 21 18 17 15 14 14 13 12 12 11 12 13 15 16 13 12 13 17 19 20 22 22 23 24 27 27 26 28 31 34 35 37 39 40
34 32 30 28 31 28 34 37 32 26 23 24 22 24 25 26 19 27 23 13 19 19 16 14 13 13 13 12 12 14 13 15 12 11 11 14 14 15 17 19 21 22 24 25 26 26 29 32 33 35 38 38 40 41
31 32 32 32 28 30 38 34 26 22 25 23 22 22 25 25 21 22 20 19 18 16 16 13 13 14 12 11 13 14 16 13 11 12 12 15 17 19 21 22 20 19 21 20 20 18 19 24 28 31 34 34 33 35
34 34 34 34 28 34 35 29 23 25 24 23 25 24 24 22 21 19 16 17 16 16 16 10 11 11 12 14 15 14 13 10 12 15 16 15 11 10 11 12 14 12 9 9 10 16 19 15 17 19 21 23 29 31
30 29 31 31 34 34 29 26 27 24 23 26 26 27 26 24 21 19 14 17 13 12 13 12 11 9 9 12 11 11 11 12 14 6 4 6 7 7 5 1 1 3 4 7 8 7 7 7 2 5 5 4 6 6
30 32 34 35 33 30 29 28 26 25 25 24 25 24 23 21 20 18 16 15 14 14 13 12 11 9 9 9 10 8 7 10 6 4 3 2 3 5 9 6 4 2 2 3 2 2 1 3 5 5 5 5 5 4
31 32 32 32 33 31 28 31 28 23 24 24 25 26 22 20 17 13 16 17 14 12 10 9 9 9 12 9 6 6 6 2 1 7 11 12 13 14 15 12 11 5 2 5 4 3 5 5 5 8 10 11 12 10
32 33 29 27 31 33 33 31 28 26 24 25 24 22 16 16 17 16 15 14 12 10 10 12 14 12 9 5 4 6 8 10 9 13 14 12 12 8 2 6 4 9 5 9 9 8 4 5 3 6 9 8 11 9
28 29 29 28 29 28 26 24 21 24 20 23 21 18 16 17 16 15 14 11 11 12 14 15 13 10 5 2 7 7 9 4 10 11 6 6 5 6 8 3 4 4 2 2 3 6 8 8 7 5 6 4 5 7
25 23 23 25 26 25 24 22 20 19 18 18 17 17 16 15 15 13 10 11 12 15 15 14 11 7 5 6 6 14 11 8 9 8 7 4 4 4 10 12 15 15 15 13 10 8 8 8 7 6 5 5 5 5
22 24 23 23 22 21 20 19 18 17 16 16 15 15 15 14 11 9 11 12 15 16 15 11 7 7 7 9 15 12 10 7 5 6 6 6 11 15 14 12 13 12 12 12 12 12 11 10 9 7 7 7 7 7
21 20 20 19 19 19 18 17 16 15 15 15 14 12 9 8 10 12 13 15 15 14 11 7 7 7 10 14 14 9 10 12 14 16 14 13 11 11 10 9 7 7 7 8 8 7 6 5 4 3 1 2 6 8
20 19 18 17 16 16 17 16 14 13 12 12 14 14 14 13 12 13 14 15 13 9 6 14 18 19 17 16 15 17 14 13 11 10 9 8 7 7 5 5 4 5 5 5 6 6 6 6 5 3 2 5 7 6
17 17 16 16 14 13 12 13 15 17 19 18 18 17 15 14 14 14 17 20 22 23 25 27 28 22 17 17 15 13 12 10 8 6 5 5 5 5 5 6 6 7 7 7 8 9 8 7 5 4 4 7 9 9
13 12 12 13 14 16 16 15 15 14 14 16 16 15 17 20 18 22 24 25 25 25 23 23 21 18 15 14 11 10 8 6 5 4 3 3 5 6 8 9 11 11 12 12 12 11 10 8 8 8 8 9 12 13
18 17 16 15 14 15 15 15 15 14 16 16 18 23 19 23 25 21 22 21 22 20 19 17 15 13 12 10 8 6 4 3 3 4 6 7 8 10 12 13 15 16 16 16 14 12 11 11 9 9 8 9 10 12
17 18 20 20 18 17 17 17 17 16 17 17 17 18 18 19 17 19 18 18 16 14 13 12 11 9 6 4 3 1 2 4 5 7 8 10 12 13 14 14 14 14 15 14 13 12 11 10 9 9 10 11 12 13
19 19 17 16 18 18 17 16 16 15 16 18 17 14 14 16 17 16 13 11 10 9 8 6 4 2 1 1 3 4 6 7 8 9 10 10 12 12 13 13 12 12 11 10 9 8 8 9 9 10 11 13 14 16
20 20 20 20 18 16 16 15 15 16 18 20 20 19 17 14 12 11 9 7 6 5 4 3 3 2 2 4 6 8 8 10 10 11 11 12 12 12 12 12 11 10 9 8 7 7 8 9 10 11 13 15 16 18
Wind_Direction
264 263 257 253 250 252 261 269 276 273 266 269 271 272 262 254 234 228 226 226 225 225 227 228 232 232 235 239 242 245 239 241 232 230 233 234 233 231 233 235 238 240 240 242 239 246 249 244 245 251 260 260 278 276
261 263 258 251 248 249 254 261 274 267 262 266 267 267 269 259 242 230 225 222 222 223 227 222 227 228 230 228 229 236 241 244 238 233 233 230 232 232 232 231 229 235 246 245 245 250 249 246 243 249 258 262 259 261
263 264 258 250 245 245 248 253 264 268 262 261 263 265 266 259 248 233 226 221 219 222 227 225 226 228 230 230 231 234 236 240 238 235 239 238 234 232 231 234 232 232 238 244 245 249 250 250 249 246 251 250 256 259
265 262 257 247 241 240 242 246 257 267 262 262 259 263 260 259 247 232 226 219 217 220 227 225 226 228 230 231 233 235 236 239 239 235 233 232 232 233 233 230 230 230 235 243 240 248 249 250 247 253 238 246 252 260
256 256 254 244 237 235 237 241 247 256 260 262 257 263 254 258 241 228 222 216 214 217 224 227 229 230 232 231 233 235 235 237 238 235 233 229 226 233 238 238 233 233 233 243 250 247 246 257 262 267 276 249 254 252
249 250 252 243 233 230 232 235 237 246 255 257 256 261 253 254 235 223 217 213 210 214 221 229 225 229 232 233 233 236 238 237 236 234 233 229 228 227 232 236 239 236 234 244 247 247 249 252 259 254 232 317 255 260
246 246 246 243 234 228 229 231 232 241 248 253 252 257 249 246 226 217 210 209 207 212 220 227 227 228 235 238 237 236 239 238 237 234 232 229 228 232 231 232 236 237 235 227 244 242 257 246 243 248 289 277 246 257
242 243 242 239 235 230 229 230 230 235 244 249 246 254 244 238 219 211 206 206 205 206 212 220 224 219 236 239 241 241 241 239 236 234 232 231 230 234 236 235 236 241 242 241 242 242 250 257 260 264 265 262 270 273
241 241 240 238 233 231 229 227 228 232 239 242 239 249 235 230 212 206 203 205 202 203 205 212 212 215 228 236 238 238 239 240 238 235 231 231 231 233 236 235 231 242 245 247 248 247 250 255 262 265 266 267 269 266
237 239 240 240 235 231 229 227 228 228 232 232 231 240 225 216 206 200 202 204 201 200 200 208 205 226 195 232 218 224 235 239 237 235 231 232 233 236 239 239 235 238 244 245 247 248 249 253 256 258 260 260 261 260
229 230 231 230 232 228 223 222 221 222 223 223 225 229 217 209 200 197 200 201 198 195 197 204 203 213 261 198 188 209 205 222 226 226 231 234 233 237 241 245 246 241 243 247 247 248 249 250 252 255 257 260 258 257
224 226 225 228 217 210 207 205 210 214 213 213 225 216 210 202 195 195 199 199 197 196 199 201 204 213 204 209 217 227 220 201 208 230 219 227 233 235 238 240 243 243 240 241 243 247 249 248 249 253 256 258 256 254
219 222 219 220 208 201 199 199 200 196 199 205 205 200 199 197 194 194 196 197 197 195 200 209 209 213 214 219 228 241 253 198 207 226 240 222 218 231 247 245 249 241 241 245 246 246 248 250 251 252 251 255 259 254
203 205 199 197 194 195 192 191 188 188 192 199 195 193 195 190 189 190 198 197 198 199 201 208 216 218 220 227 231 233 245 232 234 234 238 243 246 251 252 250 251 247 246 249 249 248 249 250 251 252 254 254 252 248
182 183 184 186 190 180 182 184 176 180 187 189 184 188 186 183 186 184 181 187 202 203 205 212 220 219 220 225 227 236 246 245 241 246 256 263 253 246 248 258 256 256 255 253 251 252 255 256 258 253 251 256 258 255
169 172 177 183 188 171 179 168 172 179 184 181 186 184 174 170 176 194 207 196 191 204 207 212 221 214 216 219 217 229 234 242 245 264 259 257 263 261 262 262 261 260 260 257 257 259 261 261 257 255 254 254 248 244
149 150 158 161 167 167 165 166 171 177 176 176 176 173 178 184 186 183 191 199 196 203 209 214 216 220 222 226 233 235 245 251 257 262 261 265 271 270 270 271 270 267 274 261 243 251 258 261 267 262 257 253 249 242
139 147 148 158 158 160 159 163 168 168 170 175 170 170 173 179 181 177 188 190 194 203 208 209 219 223 224 231 235 238 228 235 248 257 270 271 278 284 280 289 280 259 238 222 239 262 270 265 269 254 255 255 244 249
131 137 140 146 151 152 155 159 159 165 173 170 164 167 170 181 178 186 177 192 195 208 207 209 218 224 211 212 210 206 221 245 268 282 264 283 289 257 296 294 120 182 227 248 261 289 305 269 227 93 118 125 145 136
133 134 141 147 148 150 151 155 159 158 157 161 163 170 176 180 182 184 187 193 203 201 201 200 199 216 206 200 198 212 240 269 278 255 265 275 169 147 134 124 97 86 206 237 241 243 340 100 160 164 160 142 133 161
130 132 134 137 142 146 150 149 143 151 155 165 171 174 173 179 177 178 188 190 192 194 198 209 202 181 181 176 194 244 274 20 76 145 113 106 107 109 94 78 67 50 44 330 265 195 175 180 171 164 160 161 169 193
127 131 135 143 145 146 144 149 147 154 156 166 171 172 176 175 176 177 173 174 176 180 179 172 165 159 156 177 235 122 117 123 113 123 126 105 93 108 60 25 75 62 45 56 68 76 108 190 166 165 178 195 205 212
121 126 133 137 140 146 146 152 155 156 159 164 168 170 166 168 170 169 167 169 169 167 160 156 148 140 142 130 90 114 137 138 134 142 137 107 89 76 25 32 355 1 39 102 89 61 83 88 88 108 114 89 70 80
118 122 127 133 138 145 148 151 155 157 155 158 160 161 165 165 164 166 170 166 159 158 155 146 145 133 132 98 103 133 146 121 124 132 117 141 110 92 78 84 83 80 82 80 82 83 83 83 87 96 103 106 105 108
114 118 124 130 134 136 139 143 145 148 152 154 157 159 158 161 170 174 166 160 157 155 153 148 140 140 128 118 136 109 124 124 128 118 111 109 110 105 101 96 87 82 83 84 81 78 75 74 74 75 83 93 102 112
110 114 117 121 124 127 131 135 140 144 147 149 150 156 169 164 149 150 157 158 155 153 153 151 154 165 146 140 145 124 113 116 113 109 108 107 104 101 97 90 82 73 65 63 55 40 34 31 25 25 53 145 154 153
107 110 114 118 123 127 129 132 136 143 151 150 143 136 130 126 130 138 146 152 156 158 164 140 135 135 138 131 128 127 120 116 110 101 98 86 79 81 70 50 32 27 23 6 2 356 345 337 332 317 239 190 187 192
109 113 114 118 123 127 131 131 129 132 135 131 127 126 123 119 115 118 127 133 132 132 130 130 134 139 137 131 129 124 119 113 107 103 82 51 25 11 358 355 352 343 335 326 320 323 322 318 315 289 251 231 229 240
108 109 114 118 120 122 121 120 126 131 130 125 125 131 131 134 126 128 127 126 127 130 132 135 136 137 136 134 130 121 125 131 121 91 53 14 346 331 326 322 320 318 316 314 312 307 300 287 282 277 271 262 255 260
106 106 109 111 117 125 127 124 122 123 123 120 124 132 119 128 130 126 132 130 129 130 130 133 133 136 135 131 124 113 94 62 12 349 337 329 321 314 309 308 307 305 304 302 301 296 287 285 284 282 279 275 275 280
97 103 104 101 104 113 125 126 118 115 121 122 125 131 131 141 137 136 135 135 137 137 140 139 137 132 133 115 89 40 337 341 336 328 327 323 321 319 317 316 314 313 309 303 298 293 292 290 288 287 286 286 289 290
104 104 98 98 105 111 115 118 119 121 125 130 130 130 137 146 145 139 140 142 142 144 148 151 154 148 108 25 337 334 325 321 317 314 316 319 322 323 320 320 321 322 322 318 313 303 293 288 285 286 290 295 298 301
107 105 103 102 105 110 115 117 119 122 129 135 134 132 134 138 144 149 157 163 172 183 202 224 250 270 327 311 311 304 308 305 305 304 305 311 317 318 319 319 319 318 323 329 328 322 314 306 302 300 300 301 302 302
Height
5680 5682 5683 5685 5687 5689 5690 5691 5691 5691 5690 5690 5690 5691 5692 5693 5696 5699 5703 5708 5714 5719 5724 5732 5735 5740 5747 5751 5758 5760 5767 5768 5780 5783 5787 5792 5798 5804 5808 5813 5817 5820 5823 5826 5831 5833 5834 5841 5839 5837 5841 5842 5840 5839
5669 5671 5673 5675 5678 5680 5682 5684 5685 5685 5685 5685 5684 5685 5686 5687 5689 5693 5696 5700 5705 5712 5718 5722 5725 5731 5736 5741 5747 5750 5755 5760 5771 5777 5779 5783 5789 5795 5799 5804 5809 5811 5814 5819 5824 5827 5828 5829 5832 5832 5833 5836 5840 5842
5658 5659 5661 5664 5667 5671 5674 5677 5678 5679 5679 5679 5679 5679 5679 5680 5682 5685 5689 5693 5698 5704 5709 5715 5720 5724 5728 5734 5738 5743 5747 5751 5762 5769 5774 5780 5783 5788 5792 5795 5802 5802 5803 5809 5815 5816 5817 5818 5822 5823 5825 5826 5826 5829
5645 5646 5648 5651 5656 5660 5665 5668 5671 5672 5672 5673 5673 5673 5674 5674 5676 5679 5682 5687 5692 5696 5700 5708 5712 5717 5722 5726 5731 5735 5740 5745 5752 5758 5763 5769 5774 5777 5780 5783 5791 5793 5797 5801 5805 5804 5806 5806 5810 5811 5810 5819 5821 5821
5632 5634 5637 5640 5644 5650 5655 5659 5663 5665 5666 5666 5667 5668 5668 5669 5670 5673 5677 5682 5687 5693 5697 5702 5706 5711 5714 5719 5723 5728 5732 5737 5741 5748 5754 5760 5764 5768 5770 5778 5782 5788 5791 5794 5794 5796 5796 5799 5805 5810 5811 5812 5816 5815
5620 5623 5626 5629 5634 5640 5646 5651 5654 5657 5659 5660 5661 5662 5663 5663 5665 5669 5673 5678 5682 5686 5691 5696 5701 5704 5708 5712 5716 5721 5724 5728 5732 5738 5744 5751 5755 5759 5761 5768 5773 5779 5783 5786 5785 5787 5789 5795 5799 5797 5795 5794 5808 5810
5608 5612 5616 5620 5625 5630 5637 5642 5646 5649 5652 5653 5655 5656 5658 5659 5661 5665 5671 5674 5679 5683 5687 5692 5696 5699 5702 5706 5709 5713 5716 5720 5724 5729 5735 5740 5745 5748 5753 5758 5762 5767 5772 5776 5780 5782 5781 5786 5785 5782 5772 5792 5796 5799
5594 5599 5604 5610 5615 5621 5627 5633 5638 5642 5645 5647 5649 5651 5653 5654 5658 5662 5666 5671 5675 5680 5684 5688 5692 5696 5697 5699 5702 5705 5708 5712 5716 5721 5726 5730 5736 5739 5745 5753 5754 5756 5761 5769 5772 5774 5773 5775 5779 5781 5784 5790 5792 5794
5578 5584 5591 5598 5605 5611 5618 5624 5629 5634 5638 5641 5644 5646 5648 5650 5655 5659 5663 5668 5672 5678 5681 5685 5688 5690 5690 5693 5696 5698 5701 5704 5708 5713 5717 5721 5725 5730 5735 5741 5747 5747 5751 5758 5762 5765 5767 5766 5768 5773 5775 5779 5782 5787
5563 5570 5578 5585 5593 5601 5608 5615 5621 5626 5631 5635 5638 5642 5644 5647 5651 5656 5661 5666 5670 5674 5678 5682 5684 5686 5689 5690 5691 5695 5697 5700 5703 5707 5710 5714 5719 5721 5723 5728 5735 5740 5741 5746 5749 5753 5758 5758 5758 5759 5762 5766 5770 5773
5550 5558 5567 5574 5582 5589 5598 5607 5614 5619 5624 5629 5633 5637 5640 5644 5649 5654 5659 5663 5668 5672 5676 5679 5683 5684 5686 5688 5690 5692 5693 5696 5699 5702 5705 5708 5711 5714 5716 5719 5723 5729 5732 5735 5738 5741 5745 5748 5750 5749 5752 5754 5759 5761
5537 5548 5557 5566 5574 5581 5589 5597 5606 5613 5621 5626 5630 5634 5638 5642 5647 5652 5657 5662 5666 5670 5674 5677 5681 5683 5685 5687 5687 5691 5692 5695 5698 5700 5702 5704 5706 5707 5709 5713 5716 5719 5721 5722 5725 5728 5731 5734 5737 5737 5739 5742 5743 5748
5527 5538 5549 5559 5567 5574 5582 5591 5599 5607 5614 5620 5625 5630 5635 5640 5645 5651 5655 5660 5664 5668 5673 5676 5679 5681 5684 5685 5687 5689 5689 5694 5697 5697 5698 5700 5701 5702 5704 5706 5709 5711 5712 5714 5716 5718 5720 5722 5724 5725 5727 5728 5731 5733
5519 5531 5542 5553 5562 5569 5577 5586 5595 5604 5612 5618 5623 5629 5634 5638 5644 5650 5655 5659 5663 5666 5670 5674 5677 5679 5681 5682 5685 5688 5690 5692 5693 5694 5693 5695 5697 5698 5699 5700 5701 5703 5705 5705 5706 5708 5710 5711 5712 5712 5713 5714 5715 5718
5515 5528 5539 5549 5557 5565 5574 5584 5593 5602 5609 5615 5621 5627 5632 5638 5644 5649 5649 5656 5661 5665 5668 5671 5674 5677 5679 5681 5683 5685 5687 5687 5688 5689 5690 5691 5692 5693 5693 5693 5693 5695 5695 5696 5697 5698 5700 5701 5702 5702 5702 5702 5705 5708
5516 5528 5538 5547 5557 5565 5574 5583 5593 5601 5608 5615 5620 5626 5632 5638 5644 5646 5649 5653 5659 5663 5666 5670 5672 5674 5676 5679 5681 5681 5683 5683 5685 5687 5687 5687 5687 5687 5687 5688 5688 5687 5687 5688 5688 5689 5690 5690 5689 5689 5689 5689 5692 5694
5524 5533 5543 5551 5559 5568 5577 5587 5595 5602 5609 5615 5620 5626 5632 5638 5642 5647 5650 5654 5658 5662 5665 5667 5670 5672 5675 5676 5678 5678 5679 5681 5683 5683 5683 5682 5682 5682 5681 5679 5678 5678 5677 5676 5678 5680 5681 5681 5680 5678 5677 5680 5682 5684
5531 5539 5547 5557 5564 5572 5582 5590 5598 5604 5610 5615 5621 5627 5633 5637 5642 5646 5650 5653 5658 5660 5663 5666 5668 5670 5672 5673 5675 5676 5678 5680 5679 5678 5678 5678 5677 5675 5674 5674 5672 5671 5671 5672 5674 5674 5673 5672 5669 5668 5669 5671 5674 5677
5541 5549 5556 5563 5571 5579 5586 5593 5600 5606 5612 5617 5623 5628 5633 5637 5642 5644 5648 5653 5657 5659 5662 5664 5666 5668 5670 5671 5672 5675 5676 5676 5675 5674 5674 5674 5673 5673 5673 5672 5671 5670 5670 5670 5670 5670 5668 5667 5666 5666 5667 5668 5671 5671
5551 5556 5563 5570 5577 5584 5592 5598 5604 5610 5616 5622 5626 5631 5634 5638 5642 5646 5650 5653 5655 5657 5660 5662 5665 5667 5668 5671 5672 5673 5673 5673 5672 5672 5672 5672 5671 5672 5673 5674 5673 5671 5670 5669 5668 5668 5668 5666 5666 5667 5669 5671 5672 5674
5561 5567 5573 5578 5585 5591 5597 5603 5609 5614 5619 5624 5628 5631 5635 5640 5644 5648 5650 5652 5655 5658 5660 5662 5664 5666 5668 5670 5671 5671 5670 5671 5670 5671 5673 5673 5673 5674 5675 5674 5674 5672 5671 5669 5668 5667 5667 5668 5669 5671 5672 5672 5674 5676
5573 5577 5582 5588 5592 5598 5603 5608 5611 5616 5622 5626 5630 5634 5638 5642 5644 5647 5650 5653 5655 5658 5660 5661 5663 5665 5668 5669 5669 5670 5670 5671 5673 5674 5675 5675 5676 5676 5676 5675 5674 5673 5673 5671 5671 5669 5668 5669 5671 5672 5673 5675 5676 5678
5584 5587 5591 5596 5601 5605 5611 5615 5618 5621 5625 5628 5632 5636 5640 5642 5645 5648 5651 5653 5656 5657 5660 5662 5665 5667 5668 5668 5669 5670 5671 5673 5673 5675 5676 5677 5678 5678 5677 5675 5674 5673 5673 5673 5673 5673 5673 5673 5673 5674 5674 5675 5675 5676
5594 5598 5601 5603 5607 5611 5615 5618 5622 5626 5629 5632 5635 5638 5641 5644 5647 5649 5652 5654 5656 5658 5661 5664 5666 5668 5669 5669 5670 5670 5673 5674 5675 5677 5678 5679 5679 5680 5678 5678 5677 5676 5676 5675 5676 5676 5676 5676 5676 5676 5676 5677 5677 5678
5605 5607 5609 5612 5615 5618 5621 5624 5627 5630 5633 5636 5638 5641 5644 5646 5648 5651 5653 5655 5657 5660 5663 5665 5667 5668 5670 5671 5673 5674 5676 5677 5678 5678 5679 5680 5680 5681 5682 5682 5682 5682 5682 5681 5681 5681 5681 5681 5681 5682 5682 5682 5682 5683
5612 5615 5617 5619 5622 5624 5627 5629 5632 5634 5636 5639 5641 5644 5646 5648 5650 5652 5654 5656 5659 5662 5664 5666 5667 5669 5671 5673 5675 5677 5678 5679 5680 5680 5682 5683 5685 5685 5685 5686 5686 5686 5685 5685 5685 5684 5684 5684 5684 5683 5684 5684 5684 5685
5620 5622 5624 5625 5628 5629 5632 5634 5636 5638 5640 5642 5644 5647 5649 5651 5652 5655 5656 5659 5661 5663 5665 5667 5669 5671 5674 5676 5678 5680 5681 5683 5684 5685 5685 5685 5687 5687 5687 5688 5687 5687 5686 5686 5686 5685 5685 5684 5683 5683 5683 5683 5684 5685
5626 5628 5629 5631 5633 5635 5636 5638 5640 5642 5644 5647 5649 5651 5653 5654 5656 5657 5658 5661 5664 5666 5669 5672 5675 5676 5678 5680 5682 5683 5684 5685 5686 5688 5687 5687 5688 5688 5688 5687 5687 5687 5686 5685 5684 5683 5682 5682 5682 5681 5681 5682 5682 5682
5632 5633 5634 5636 5637 5639 5641 5643 5645 5647 5649 5651 5654 5655 5657 5660 5662 5664 5666 5668 5670 5672 5674 5677 5679 5680 5682 5683 5684 5686 5688 5689 5689 5689 5689 5689 5688 5688 5687 5686 5686 5685 5684 5683 5682 5681 5680 5680 5679 5679 5679 5679 5679 5679
5637 5638 5640 5641 5642 5644 5646 5648 5651 5653 5654 5656 5658 5661 5663 5665 5667 5670 5672 5674 5676 5678 5680 5682 5683 5685 5685 5686 5687 5688 5688 5689 5689 5689 5689 5688 5688 5687 5686 5684 5683 5682 5680 5679 5678 5678 5677 5676 5676 5676 5676 5676 5676 5675
5644 5645 5646 5647 5649 5650 5652 5655 5657 5659 5661 5663 5665 5667 5669 5672 5674 5676 5678 5679 5680 5682 5683 5685 5686 5687 5688 5688 5689 5689 5690 5690 5689 5688 5688 5687 5686 5685 5683 5682 5680 5679 5677 5675 5675 5674 5674 5674 5673 5673 5673 5673 5672 5672
5652 5653 5653 5655 5656 5657 5658 5660 5662 5664 5666 5668 5671 5673 5675 5677 5679 5680 5682 5683 5684 5685 5686 5687 5688 5689 5690 5690 5689 5689 5690 5689 5688 5688 5687 5686 5684 5683 5681 5680 5678 5677 5674 5673 5672 5671 5671 5671 5671 5670 5670 5669 5668 5667
5659 5660 5660 5662 5663 5664 5665 5666 5668 5669 5671 5673 5675 5677 5679 5681 5683 5685 5685 5686 5687 5687 5688 5688 5689 5689 5690 5689 5689 5689 5689 5688 5687 5686 5685 5684 5682 5681 5679 5678 5676 5675 5674 5672 5671 5670 5670 5669 5668 5668 5667 5665 5664 5663